GALAXY 34 (G-34)

Last updated on Thu Nov 21 2024 00:02:44 GMT+0000 (Coordinated Universal Time)

1 54027U 22128B 24324.55489486 .00000060 00000+0 00000+0 0 9991 2 54027 0.0191 309.8288 0001490 289.6885 250.3477 1.00272870 8158
UTC large
Height (km)
Speed (km/s)
/
Latitude / Longitude
Inclination (degrees)
Orbital Period (minutes)
Azimuth
Elevation
Range (km)
Doppler Factor

Next 0 passes for location: London (51.5072 / 0.1276)

Sorry there are no passes over London.